Regional Weather Roundup
Issued by NWS Wakefield, VA

Home | Current Version | Previous Version | Graphics & Text | Print | Product List | Glossary On
Versions: 1 2 3 4 5 6 7 8 9 10 11 12 13 14 15 16 17 18 19 20 21 22 23 24 25 26 27 28 29 30 31 32 33 34 35 36 37 38 39 40 41 42 43 44 45 46 47 48 49 50
365
ASUS41 KAKQ 120715
RWRAKQ

REGIONAL WEATHER ROUNDUP
NATIONAL WEATHER SERVICE WAKEFIELD VA
200 AM EST FRI FEB 12 2016

Note: "fair" indicates few or no clouds below 12,000 feet with no
significant weather and/or obstructions to visibility. * = Denotes
station may not report precipitation (e.g., rain,snow,etc.),
thunder or fog.

VAZ042-051-052>054-056-120800-
NORTHERN VIRGINIA

CITY           SKY/WX    TMP DP  RH WIND       PRES   REMARKS
WASH NATIONAL  MOCLDY    21   3  45 W6        30.35F
DULLES         FAIR      17   4  56 W5        30.32F
FORT BELVOIR   FAIR      15   7  70 CALM      30.34S
QUANTICO       FAIR      20   9  62 NW5       30.36F
FREDERICKSBRG* FAIR      19  11  70 CALM      30.33F
STAFFORD*      FAIR      15   7  72 CALM      30.37F
WARRENTON      FAIR      16  13  90 CALM      30.31F
CULPEPER*      FAIR      15   9  75 CALM      30.33F
MANASSAS*      FAIR      16  12  86 CALM      30.33F
LEESBURG*      FAIR      19  12  73 W5        30.32F
WINCHESTER     FAIR      16   7  67 CALM      30.28F
FRONT ROYAL*   FAIR      19   3  49 CALM      30.27F
LURAY*         FAIR      16   5  62 CALM      30.26F
$$

VAZ048-049-060>072-079>083-120800-
CENTRAL AND SOUTH CENTRAL VIRGINIA

CITY           SKY/WX    TMP DP  RH WIND       PRES   REMARKS
RICHMOND       FAIR      20   6  55 CALM      30.33F
CHESTERFIELD*  FAIR      21  -4  33 CALM      30.35S
PETERSBURG*    FAIR      22   9  58 CALM      30.35S
HANOVER        FAIR      19   8  62 CALM      30.35S
TAPPAHANNOCK*  FAIR      17  10  73 CALM      30.34F
QUINTON*       FAIR      19   8  61 CALM      30.34S
CHARLOTTSVILLE FAIR      20   1  43 CALM      30.28F
GORDONSVILLE*  FAIR      19   8  64 CALM      30.30S
ORANGE*        FAIR      18  10  73 CALM      30.32F
LOUISA*        FAIR      19   5  53 CALM      30.28F
BUMPASS*       FAIR      18   8  64 CALM      30.31S
FARMVILLE*     FAIR      24   6  47 CALM      30.30S
CREWE*         FAIR      22   4  45 CALM      30.31F
FORT PICKETT*  NOT AVBL
CHASE CITY*    PTSUNNY   24   4  42 CALM      30.31R
CLARKSVILLE*   PTSUNNY   27   5  39 NE5       30.31S
SOUTH HILL*    FAIR      21   7  53 CALM      30.37S
LAWRENCEVILLE* FAIR      23   4  44 CALM      30.31F
EMPORIA*       FAIR      23   7  50 N3        30.35S
$$

VAZ088>098-120800-
SOUTHEAST VIRGINIA

CITY           SKY/WX    TMP DP  RH WIND       PRES   REMARKS
NORFOLK        FAIR      28   8  43 N10       30.33S WCI  19
VIRGINIA BEACH FAIR      29  12  49 N7        30.33S
NORFOLK NAVAL  FAIR      27   9  46 N10       30.35S WCI  17
WEST POINT*    FAIR      17   9  70 CALM      30.37S
SALUDA*        FAIR      23   6  48 N5        30.35R
NEWPORT NEWS   FAIR      22   7  52 N3        30.35S
LANGLEY AFB    FAIR      24   7  50 N8        30.33S
FORT EUSTIS    FAIR      24   5  43 N1        30.33S
WILLIAMSBURG*  FAIR      25   9  50 CALM      30.36S
HR EXEC AP*    FAIR      25   9  50 N5        30.35S
FRANKLIN*      FAIR      23   5  46 CALM      30.35S
US460-WAKEFLD  FAIR      23   4  44 CALM      30.35S
$$

VAZ020-022-025-037-045-120800-
WEST CENTRAL AND SOUTHWEST VIRGINIA

CITY           SKY/WX    TMP DP  RH WIND       PRES   REMARKS
STAUNTON*      FAIR      17   9  73 CALM      30.25F
WAYNESBORO*    FAIR      13   2  61 CALM      30.21F
HOT SPRINGS VA FAIR       9   2  73 W8        29.99F
LYNCHBURG      MOCLDY    22   5  48 NE3       30.27F
DANVILLE       FAIR      25  13  60 CALM      30.30S
SOUTH BOSTON*  PTSUNNY   23  10  58 CALM      30.30F
MARTINSVILLE   CLOUDY    24   5  45 SE5       30.27F
ROANOKE        FAIR      21   6  52 NE5       30.25F
BLACKSBURG     CLOUDY    19  10  68 CALM      30.18F
DUBLIN*        MOCLDY    20  11  66 CALM      30.17F
MARION*        CLOUDY    18  10  72 CALM      30.15F
HILLSVILLE*    CLOUDY    20   7  55 CALM      30.09F
RICHLANDS*     FAIR      20   6  53 CALM      30.11F
WISE*          FAIR      23   9  54 E3        30.11F
ABINGDON*      CLOUDY    27  14  60 CALM      30.15F
$$

MDZ021>025-VAZ099-100-120800-
SOUTHERN MARYLAND AND THE DELMARVA PENINSULA

CITY           SKY/WX    TMP DP  RH WIND       PRES   REMARKS
PATUXENT RIVER PTCLDY    23   4  44 N17       30.34S WCI   9
BAY BRIDGE APT   N/A     23   1  39 W10       30.33S WCI  12
LEONARDTOWN    PTCLDY    21   3  45 W5        30.34
DOVER          CLEAR     20   6  53 W8        30.30S
GEORGETOWN     CLEAR     20   4  50 NW6       30.32F
EASTON         CLEAR     22   4  47 NW13      30.36F WCI   9
CAMBRIDGE      CLEAR     23   3  42 NW14      30.32F WCI  11
SALISBURY      CLEAR     21   3  45 NW8       30.32S
OCEAN CITY     CLEAR     20   3  48 NW6       30.33R
WALLOPS ISLAND FAIR      20   5  52 CALM      30.35R
ACCOMACK*      FAIR      25   3  39 NW9G17    30.33S
$$

NCZ012>017-030>032-120800-
NORTH CENTRAL AND EASTERN NORTH CAROLINA

CITY           SKY/WX    TMP DP  RH WIND       PRES   REMARKS
ROANOKE RAPIDS FAIR      23   9  54 NE5       30.32S
RALEIGH        MOCLDY    27   7  42 NE6       30.30F
ELIZABETH CITY CLEAR     28  12  51 N10       30.33R WCI  19
AHOSKIE*       CLEAR     23  10  57 CALM      30.34S
EDENTON*       CLEAR     27  12  55 N5        30.33S
CURRITUCK*     CLEAR     30  17  59 N6        30.33S
KILL DEVIL HLS CLEAR     29  13  50 CALM      30.29F
MANTEO         CLEAR     31  12  45 N6        30.31F
CAPE HATTERAS  CLEAR     34  13  41 VRB3      30.31S
TARBORO*       FAIR      24  20  83 CALM      30.34S
GOLDSBORO      CLEAR     28  10  47 NE6       30.29S
WASHINGTON     PTCLDY    24  17  74 CALM      30.32S
GREENVILLE     PTCLDY    27  18  69 CALM      30.33S
NEW BERN       CLEAR     28  17  63 NE8       30.32S
WILMINGTON     PTCLDY    28  23  81 NE7       30.27S
$$

VAZ048-120800-
ELSEWHERE

CITY           SKY/WX    TMP DP  RH WIND       PRES   REMARKS
HARRISBURG PA  PTCLDY    18   5  57 W10       30.27S WCI   6
BALTIMORE      MOCLDY    17   2  51 W6        30.32S
ANNAPOLIS      CLEAR     20   2  45 W6        30.33S
ANDREWS AFB    FAIR      20   2  46 W2        30.31S
PHILADELPHIA   PTCLDY    20  -2  38 W10       30.29S WCI   9
HENDERSON NC   CLEAR     24   6  46 N5        30.29F
GREENSBORO     PTCLDY    26   6  42 E6        30.24S
ROCKY MOUNT    PTCLDY    24  13  62 NE3       30.32S
$$

VAZ100-120800-
MARINE

STATION/POSITION TIME  TEMP    WIND        PRES    WAVE   SWELL
                       AIR SEA DIR/SP/G            HT/PER HT/PER
                 (UTC) (F)     (DEG/KT/KT) (MB)    (FT/S) (FT/S)
BRANDYWINE LGT   0600   23     320/ 16/ 29 1026.0R
CAPE MAY NJ      0600   24 37  320/ 10/ 23 1025.9R
LEWES DE         0600   23 38  290/ 13/ 15 1026.6R
15NM E FENWICK I 0650   25 43              1026.1R   5/ 6
OCEAN-CITY-INLET 0600   23 41  330/ 12/ 15 1025.8R
WACHAPREAGUE VA  0600   25 38  350/  5/ 11 1027.2R
THOMAS POINT MD  0700   22 36  300/ 12/ 14 1027.8R
GOOSES REEF MD   0700   24 37  330/ 14/ 17 1028.0F   1/ 3
COVE POINT MD    0600   22     320/ 11/ 16 1028.0S
SOLOMONS ISLAND  0600   24 39  310/  9/ 19   N/A
BISHOPS HEAD MD  0600   22 30  320/ 15/ 17 1026.3R
PINEY POINT MD   0600           10/ 15/ 17   N/A
POTOMAC MD       0700   23 38  350/ 10/ 14 1026.3S   1/ 3
CAMBRIDGE MD     0600   23 37  290/ 12/ 19 1026.6R
LEWISETTA VA     0600   24 38  360/ 13/ 17 1027.1R
RAPPAHANNOCK LGT 0600          340/ 16/ 18 1027.3R
STINGRAY PT      0700   25 40  340/ 10/ 14 1027.4S   1/ 3
YORK RVR RNG VA  0600   26      10/ 13/ 15 1026.8R
YORKTOWN VA      0600   26 40  340/  8/ 11 1027.4R
JAMESTOWN VA     0700   24 41   20/  2/  4   N/A     0
DOMINION TERM VA 0600   27     360/  9/ 11 1027.3R
KIPTOPEKE VA     0600      40   30/  4/  6   N/A
CHES BAY BRIDGE  0600   29 41  340/ 12/ 15 1026.8R
CAPE HENRY VA    0600   29      10/ 14/ 18   N/A
CHESAPEAKE LGHT  0600   29     360/ 15/ 17 1027.4R
WILLOUBY STN VA  0600   27     350/  9/ 11 1028.0R
CAPE HENRY BUOY  0628      43                N/A     3/ 5
1ST LANDING BUOY 0700      41                N/A     2/ 3
CAPE CHARLES BUO 0626      43                N/A     3/ 4   2/10
OFFSHORE WE BUOY 0621      45                N/A     4/ 5   2/ 7
64NM E OF VA BCH 0650   33 49  350/ 14/ 17 1026.1R   5/ 7   3/ 7
DUCK PIER NC     0600   34      10/ 11/ 15 1025.7R
44100 DUCK FRF   0624      46                N/A     3/ 4
44056 DUCK FRF   0611      43                N/A     2/ 3
OREGON INLET NC  0600   32 40  320/  6/  7 1026.5R
HATTERAS NC      0600   37 45  360/  8/ 10 1025.9R
DIAMOND SHLS NC  0650   40 67  360/ 10/ 14 1026.3F   3/ 9   2/ 9
$$
  C1F1C2F2C3F3C4F4C5F5C6F6C7F7C8M1C9!



USA.gov is the U.S. government's official web portal to all federal, state and local government web resources and services.